QPF
0.00 0.00 0.00 0.00 0.00 0.00 0.00 0.00 0.00 0.00 0.00 0.02 0.03 0.05 0.04 0.03 0.03 0.02 0.02 0.02 0.01 0.02 0.03 0.08 0.12 0.06 0.02 0.03 0.03 0.04 0.05 0.06 0.07 0.09 0.11 0.11 0.13 0.12 0.10 0.11 0.10 0.09 0.09 0.10
0.00 0.00 0.00 0.00 0.00 0.00 0.00 0.00 0.00 0.00 0.00 0.02 0.04 0.04 0.02 0.01 0.01 0.01 0.01 0.02 0.03 0.07 0.08 0.09 0.13 0.14 0.07 0.04 0.05 0.06 0.06 0.07 0.09 0.13 0.15 0.16 0.18 0.15 0.11 0.11 0.10 0.08 0.07 0.07
0.00 0.00 0.00 0.00 0.00 0.00 0.00 0.00 0.00 0.00 0.00 0.00 0.01 0.01 0.01 0.02 0.01 0.01 0.01 0.02 0.02 0.07 0.13 0.13 0.13 0.14 0.11 0.08 0.06 0.09 0.14 0.14 0.14 0.19 0.22 0.19 0.20 0.18 0.15 0.11 0.10 0.08 0.07 0.07
0.00 0.00 0.00 0.00 0.00 0.00 0.00 0.00 0.00 0.00 0.01 0.00 0.01 0.01 0.03 0.03 0.03 0.03 0.02 0.02 0.03 0.06 0.11 0.14 0.14 0.17 0.16 0.12 0.09 0.14 0.22 0.18 0.15 0.16 0.18 0.18 0.17 0.20 0.18 0.12 0.09 0.07 0.06 0.04
0.00 0.00 0.00 0.00 0.00 0.00 0.00 0.00 0.00 0.00 0.00 0.00 0.01 0.01 0.03 0.05 0.05 0.04 0.03 0.02 0.04 0.05 0.04 0.08 0.16 0.14 0.10 0.08 0.08 0.10 0.14 0.14 0.11 0.10 0.12 0.15 0.15 0.15 0.16 0.13 0.10 0.07 0.05 0.03
0.00 0.00 0.00 0.00 0.00 0.00 0.00 0.00 0.00 0.00 0.00 0.01 0.01 0.02 0.06 0.06 0.07 0.06 0.04 0.03 0.03 0.02 0.03 0.04 0.08 0.10 0.08 0.07 0.07 0.08 0.09 0.10 0.11 0.10 0.12 0.12 0.12 0.13 0.11 0.09 0.07 0.06 0.05 0.04
0.00 0.00 0.00 0.00 0.00 0.00 0.00 0.00 0.01 0.03 0.02 0.02 0.01 0.02 0.04 0.04 0.03 0.07 0.04 0.02 0.02 0.02 0.03 0.05 0.07 0.08 0.08 0.08 0.09 0.11 0.11 0.10 0.11 0.11 0.13 0.12 0.12 0.12 0.10 0.09 0.08 0.06 0.05 0.04
0.01 0.01 0.00 0.00 0.00 0.00 0.00 0.00 0.01 0.03 0.04 0.03 0.02 0.03 0.03 0.02 0.02 0.02 0.02 0.02 0.02 0.02 0.03 0.04 0.05 0.06 0.07 0.08 0.07 0.06 0.06 0.07 0.08 0.08 0.09 0.10 0.11 0.12 0.09 0.09 0.08 0.06 0.06 0.05
0.00 0.00 0.00 0.00 0.00 0.00 0.00 0.00 0.00 0.00 0.01 0.02 0.02 0.04 0.04 0.04 0.06 0.05 0.02 0.02 0.02 0.02 0.03 0.03 0.03 0.03 0.03 0.03 0.03 0.04 0.05 0.06 0.07 0.07 0.08 0.08 0.09 0.10 0.09 0.08 0.07 0.06 0.05 0.04
0.00 0.00 0.00 0.00 0.00 0.00 0.00 0.00 0.00 0.01 0.03 0.04 0.03 0.06 0.09 0.09 0.09 0.09 0.04 0.03 0.03 0.03 0.03 0.03 0.03 0.02 0.03 0.03 0.04 0.06 0.06 0.07 0.09 0.07 0.07 0.07 0.07 0.06 0.06 0.06 0.05 0.04 0.04 0.03
0.00 0.00 0.00 0.00 0.00 0.00 0.00 0.00 0.00 0.02 0.03 0.06 0.05 0.07 0.07 0.08 0.11 0.09 0.08 0.08 0.10 0.08 0.06 0.05 0.04 0.04 0.04 0.06 0.06 0.07 0.08 0.08 0.09 0.10 0.11 0.10 0.07 0.06 0.05 0.05 0.04 0.03 0.03 0.03
0.00 0.00 0.00 0.00 0.00 0.00 0.00 0.00 0.01 0.03 0.04 0.03 0.05 0.08 0.06 0.05 0.04 0.04 0.04 0.04 0.04 0.03 0.02 0.03 0.05 0.04 0.04 0.05 0.06 0.09 0.10 0.08 0.11 0.14 0.15 0.16 0.10 0.07 0.06 0.05 0.04 0.04 0.04 0.03
0.00 0.01 0.02 0.04 0.03 0.01 0.00 0.00 0.00 0.02 0.03 0.03 0.05 0.07 0.06 0.04 0.03 0.03 0.04 0.02 0.02 0.02 0.03 0.03 0.04 0.05 0.05 0.05 0.05 0.06 0.06 0.08 0.11 0.17 0.16 0.18 0.14 0.09 0.07 0.06 0.06 0.04 0.04 0.03
0.00 0.00 0.02 0.03 0.02 0.01 0.00 0.00 0.00 0.02 0.03 0.03 0.03 0.04 0.04 0.04 0.04 0.05 0.05 0.03 0.02 0.02 0.02 0.02 0.03 0.05 0.06 0.06 0.06 0.05 0.06 0.08 0.09 0.15 0.18 0.16 0.15 0.11 0.08 0.06 0.05 0.04 0.04 0.03
0.00 0.01 0.00 0.00 0.00 0.00 0.01 0.02 0.01 0.01 0.01 0.02 0.02 0.02 0.03 0.03 0.03 0.04 0.03 0.03 0.01 0.01 0.01 0.01 0.02 0.04 0.06 0.07 0.08 0.08 0.07 0.08 0.08 0.10 0.13 0.12 0.12 0.11 0.09 0.07 0.05 0.05 0.05 0.03
0.01 0.02 0.01 0.01 0.00 0.00 0.01 0.02 0.02 0.02 0.02 0.02 0.02 0.02 0.03 0.02 0.03 0.03 0.03 0.03 0.02 0.01 0.01 0.01 0.02 0.03 0.05 0.06 0.07 0.07 0.08 0.06 0.06 0.07 0.08 0.10 0.10 0.09 0.07 0.05 0.05 0.05 0.05 0.04
0.02 0.03 0.04 0.03 0.01 0.02 0.03 0.01 0.02 0.02 0.02 0.02 0.02 0.02 0.03 0.04 0.03 0.02 0.02 0.02 0.02 0.01 0.02 0.02 0.02 0.03 0.03 0.05 0.05 0.05 0.05 0.06 0.07 0.07 0.06 0.07 0.08 0.07 0.05 0.04 0.04 0.05 0.04 0.03
0.01 0.06 0.06 0.04 0.04 0.07 0.03 0.00 0.01 0.01 0.02 0.02 0.02 0.02 0.03 0.04 0.03 0.01 0.02 0.02 0.02 0.03 0.03 0.03 0.03 0.03 0.03 0.04 0.05 0.06 0.06 0.05 0.07 0.06 0.06 0.05 0.05 0.04 0.05 0.04 0.05 0.05 0.05 0.04
0.00 0.04 0.07 0.08 0.08 0.06 0.03 0.01 0.00 0.01 0.01 0.01 0.02 0.01 0.02 0.03 0.04 0.03 0.02 0.01 0.01 0.01 0.02 0.03 0.04 0.03 0.03 0.04 0.05 0.04 0.05 0.04 0.04 0.05 0.05 0.04 0.04 0.03 0.03 0.04 0.04 0.05 0.05 0.04
0.00 0.02 0.06 0.08 0.09 0.07 0.04 0.01 0.00 0.01 0.03 0.01 0.01 0.02 0.03 0.05 0.06 0.07 0.03 0.02 0.01 0.01 0.01 0.03 0.04 0.05 0.05 0.06 0.06 0.05 0.05 0.06 0.05 0.04 0.04 0.03 0.03 0.03 0.04 0.04 0.04 0.04 0.04 0.04
0.03 0.04 0.06 0.08 0.08 0.06 0.03 0.00 0.01 0.04 0.05 0.02 0.02 0.03 0.04 0.07 0.07 0.05 0.02 0.01 0.01 0.01 0.01 0.03 0.05 0.06 0.07 0.07 0.06 0.06 0.06 0.06 0.04 0.04 0.04 0.03 0.03 0.03 0.03 0.04 0.04 0.04 0.04 0.04
0.03 0.05 0.06 0.07 0.07 0.06 0.02 0.01 0.02 0.03 0.01 0.01 0.03 0.03 0.04 0.05 0.05 0.05 0.03 0.01 0.01 0.01 0.01 0.02 0.05 0.08 0.08 0.07 0.06 0.05 0.05 0.05 0.04 0.03 0.03 0.02 0.03 0.02 0.03 0.05 0.04 0.04 0.04 0.04
0.03 0.04 0.06 0.06 0.05 0.04 0.02 0.02 0.02 0.02 0.01 0.01 0.02 0.02 0.03 0.04 0.04 0.03 0.03 0.02 0.01 0.01 0.02 0.02 0.03 0.05 0.06 0.06 0.05 0.04 0.03 0.03 0.03 0.03 0.03 0.03 0.03 0.04 0.05 0.05 0.04 0.04 0.04 0.04
0.04 0.03 0.04 0.04 0.03 0.02 0.03 0.02 0.02 0.03 0.03 0.02 0.01 0.01 0.01 0.03 0.04 0.04 0.03 0.02 0.02 0.02 0.02 0.03 0.03 0.03 0.03 0.04 0.04 0.04 0.03 0.03 0.04 0.05 0.04 0.04 0.04 0.05 0.06 0.05 0.04 0.04 0.03 0.03
0.05 0.06 0.06 0.04 0.03 0.04 0.04 0.03 0.02 0.02 0.03 0.03 0.03 0.03 0.02 0.04 0.05 0.05 0.03 0.02 0.02 0.02 0.02 0.03 0.04 0.03 0.03 0.03 0.03 0.03 0.03 0.03 0.05 0.05 0.04 0.04 0.04 0.05 0.05 0.04 0.03 0.02 0.02 0.01
0.03 0.04 0.06 0.05 0.04 0.05 0.05 0.03 0.02 0.01 0.01 0.02 0.03 0.04 0.04 0.05 0.07 0.06 0.04 0.02 0.02 0.02 0.02 0.03 0.03 0.03 0.04 0.04 0.03 0.03 0.03 0.03 0.04 0.04 0.04 0.04 0.04 0.04 0.04 0.03 0.02 0.02 0.01 0.01
MSLP
1010.31 1010.57 1010.69 1010.68 1010.56 1010.37 1010.15 1009.92 1009.68 1009.42 1009.08 1008.64 1008.06 1007.35 1006.52 1005.62 1004.73 1003.92 1003.26 1002.79 1002.54 1002.51 1002.67 1002.98 1003.39 1003.87 1004.37 1004.88 1005.39 1005.91 1006.43 1006.96 1007.50 1008.04 1008.56 1009.05 1009.50 1009.91 1010.27 1010.60 1010.91 1011.20 1011.49 1011.78
1010.65 1010.80 1010.80 1010.70 1010.51 1010.31 1010.12 1009.96 1009.80 1009.61 1009.33 1008.91 1008.31 1007.53 1006.60 1005.59 1004.59 1003.70 1003.00 1002.54 1002.35 1002.41 1002.69 1003.11 1003.62 1004.15 1004.67 1005.15 1005.59 1006.00 1006.42 1006.85 1007.30 1007.79 1008.28 1008.77 1009.25 1009.68 1010.07 1010.42 1010.72 1011.00 1011.27 1011.52
1010.85 1010.88 1010.78 1010.60 1010.39 1010.21 1010.07 1010.00 1009.94 1009.84 1009.62 1009.22 1008.60 1007.76 1006.74 1005.63 1004.55 1003.61 1002.90 1002.48 1002.38 1002.57 1002.99 1003.54 1004.15 1004.73 1005.23 1005.64 1005.97 1006.24 1006.50 1006.78 1007.12 1007.51 1007.96 1008.45 1008.94 1009.42 1009.85 1010.23 1010.55 1010.83 1011.07 1011.30
1010.87 1010.79 1010.62 1010.41 1010.21 1010.08 1010.05 1010.09 1010.15 1010.16 1010.01 1009.64 1009.00 1008.10 1007.00 1005.82 1004.67 1003.70 1003.00 1002.65 1002.66 1002.97 1003.53 1004.20 1004.89 1005.49 1005.96 1006.28 1006.46 1006.56 1006.63 1006.74 1006.93 1007.22 1007.61 1008.08 1008.60 1009.12 1009.61 1010.04 1010.40 1010.69 1010.92 1011.11
1010.69 1010.54 1010.33 1010.12 1009.98 1009.96 1010.05 1010.24 1010.45 1010.57 1010.51 1010.17 1009.52 1008.59 1007.43 1006.18 1004.98 1003.99 1003.32 1003.03 1003.12 1003.55 1004.22 1004.98 1005.72 1006.33 1006.75 1006.95 1006.98 1006.89 1006.77 1006.69 1006.73 1006.91 1007.24 1007.70 1008.24 1008.81 1009.36 1009.85 1010.26 1010.57 1010.81 1010.98
1010.36 1010.17 1009.95 1009.79 1009.73 1009.84 1010.09 1010.44 1010.79 1011.04 1011.06 1010.77 1010.14 1009.18 1007.99 1006.69 1005.47 1004.47 1003.81 1003.56 1003.72 1004.22 1004.95 1005.77 1006.53 1007.11 1007.46 1007.55 1007.43 1007.17 1006.87 1006.63 1006.53 1006.61 1006.88 1007.32 1007.88 1008.50 1009.11 1009.66 1010.12 1010.47 1010.71 1010.88
1009.96 1009.74 1009.54 1009.43 1009.48 1009.72 1010.12 1010.62 1011.11 1011.47 1011.58 1011.35 1010.74 1009.79 1008.58 1007.27 1006.03 1005.03 1004.38 1004.15 1004.33 1004.86 1005.62 1006.44 1007.18 1007.72 1008.00 1007.99 1007.75 1007.36 1006.92 1006.56 1006.35 1006.34 1006.56 1006.98 1007.56 1008.21 1008.86 1009.46 1009.96 1010.34 1010.60 1010.76
1009.59 1009.35 1009.17 1009.13 1009.27 1009.61 1010.12 1010.73 1011.33 1011.77 1011.95 1011.76 1011.19 1010.26 1009.07 1007.78 1006.55 1005.55 1004.91 1004.68 1004.85 1005.37 1006.10 1006.90 1007.60 1008.09 1008.31 1008.24 1007.93 1007.46 1006.94 1006.50 1006.22 1006.16 1006.33 1006.73 1007.29 1007.95 1008.62 1009.24 1009.76 1010.15 1010.43 1010.60
1009.34 1009.09 1008.94 1008.93 1009.12 1009.51 1010.07 1010.73 1011.36 1011.84 1012.04 1011.89 1011.35 1010.46 1009.32 1008.07 1006.88 1005.91 1005.28 1005.04 1005.19 1005.66 1006.35 1007.09 1007.74 1008.19 1008.38 1008.30 1007.97 1007.49 1006.96 1006.50 1006.19 1006.09 1006.23 1006.58 1007.10 1007.72 1008.37 1008.97 1009.49 1009.89 1010.18 1010.36
1009.29 1009.04 1008.89 1008.89 1009.07 1009.45 1009.99 1010.60 1011.19 1011.62 1011.80 1011.64 1011.13 1010.29 1009.21 1008.04 1006.92 1006.00 1005.40 1005.16 1005.28 1005.71 1006.33 1007.02 1007.63 1008.07 1008.27 1008.21 1007.93 1007.51 1007.03 1006.59 1006.29 1006.18 1006.27 1006.56 1007.01 1007.55 1008.12 1008.67 1009.15 1009.54 1009.84 1010.05
1009.47 1009.22 1009.06 1009.02 1009.15 1009.44 1009.86 1010.35 1010.80 1011.12 1011.20 1011.00 1010.49 1009.69 1008.70 1007.63 1006.62 1005.79 1005.24 1005.03 1005.14 1005.53 1006.10 1006.75 1007.34 1007.80 1008.04 1008.07 1007.90 1007.58 1007.20 1006.83 1006.56 1006.44 1006.47 1006.67 1007.01 1007.43 1007.90 1008.36 1008.78 1009.14 1009.44 1009.68
1009.81 1009.57 1009.38 1009.30 1009.33 1009.47 1009.72 1010.00 1010.24 1010.37 1010.32 1010.03 1009.49 1008.75 1007.85 1006.91 1006.04 1005.33 1004.87 1004.71 1004.84 1005.22 1005.77 1006.40 1007.00 1007.49 1007.82 1007.96 1007.92 1007.75 1007.49 1007.21 1006.98 1006.84 1006.81 1006.90 1007.09 1007.37 1007.70 1008.05 1008.40 1008.73 1009.04 1009.33
1010.21 1009.98 1009.78 1009.62 1009.53 1009.51 1009.52 1009.56 1009.55 1009.45 1009.22 1008.82 1008.26 1007.56 1006.77 1005.98 1005.27 1004.72 1004.40 1004.32 1004.50 1004.90 1005.45 1006.08 1006.71 1007.26 1007.67 1007.94 1008.04 1008.01 1007.88 1007.69 1007.49 1007.32 1007.21 1007.18 1007.22 1007.35 1007.53 1007.77 1008.05 1008.36 1008.69 1009.04
1010.53 1010.33 1010.11 1009.89 1009.67 1009.46 1009.25 1009.02 1008.76 1008.43 1008.01 1007.50 1006.92 1006.27 1005.61 1004.99 1004.47 1004.11 1003.95 1004.00 1004.25 1004.69 1005.27 1005.91 1006.56 1007.16 1007.66 1008.03 1008.25 1008.34 1008.31 1008.19 1008.00 1007.80 1007.61 1007.45 1007.35 1007.33 1007.39 1007.54 1007.77 1008.08 1008.46 1008.88
1010.68 1010.48 1010.25 1009.96 1009.63 1009.26 1008.84 1008.37 1007.87 1007.33 1006.76 1006.17 1005.58 1005.01 1004.49 1004.07 1003.77 1003.62 1003.64 1003.84 1004.19 1004.69 1005.29 1005.94 1006.60 1007.22 1007.76 1008.20 1008.50 1008.66 1008.69 1008.60 1008.41 1008.16 1007.89 1007.62 1007.41 1007.27 1007.25 1007.34 1007.57 1007.91 1008.35 1008.87
1010.57 1010.37 1010.11 1009.76 1009.33 1008.82 1008.23 1007.58 1006.90 1006.21 1005.53 1004.91 1004.35 1003.89 1003.54 1003.33 1003.26 1003.34 1003.56 1003.91 1004.37 1004.92 1005.54 1006.18 1006.82 1007.42 1007.95 1008.38 1008.69 1008.87 1008.91 1008.81 1008.60 1008.30 1007.96 1007.62 1007.33 1007.14 1007.08 1007.17 1007.42 1007.83 1008.36 1008.98
1010.24 1009.99 1009.67 1009.26 1008.75 1008.13 1007.42 1006.65 1005.85 1005.07 1004.36 1003.75 1003.27 1002.95 1002.80 1002.82 1002.99 1003.30 1003.71 1004.21 1004.77 1005.37 1005.98 1006.58 1007.16 1007.68 1008.14 1008.50 1008.76 1008.89 1008.88 1008.74 1008.49 1008.15 1007.77 1007.40 1007.09 1006.89 1006.85 1007.00 1007.32 1007.82 1008.45 1009.18
1009.76 1009.41 1009.01 1008.52 1007.93 1007.23 1006.44 1005.60 1004.76 1003.96 1003.27 1002.73 1002.38 1002.23 1002.29 1002.54 1002.94 1003.46 1004.06 1004.70 1005.34 1005.96 1006.54 1007.06 1007.53 1007.93 1008.26 1008.49 1008.63 1008.65 1008.56 1008.36 1008.06 1007.70 1007.31 1006.95 1006.67 1006.54 1006.58 1006.81 1007.25 1007.85 1008.60 1009.42
1009.30 1008.80 1008.28 1007.69 1007.01 1006.25 1005.42 1004.55 1003.71 1002.94 1002.32 1001.89 1001.68 1001.71 1001.98 1002.44 1003.06 1003.77 1004.53 1005.27 1005.97 1006.59 1007.11 1007.54 1007.87 1008.10 1008.26 1008.32 1008.30 1008.19 1007.99 1007.72 1007.37 1007.00 1006.64 1006.34 1006.15 1006.11 1006.27 1006.64 1007.20 1007.92 1008.77 1009.67
1009.00 1008.33 1007.66 1006.95 1006.19 1005.36 1004.50 1003.63 1002.81 1002.11 1001.57 1001.26 1001.20 1001.39 1001.83 1002.47 1003.26 1004.13 1005.00 1005.83 1006.56 1007.16 1007.61 1007.93 1008.11 1008.18 1008.14 1008.03 1007.84 1007.59 1007.28 1006.93 1006.56 1006.20 1005.90 1005.69 1005.62 1005.72 1006.02 1006.52 1007.21 1008.04 1008.97 1009.92
1008.97 1008.14 1007.32 1006.48 1005.63 1004.74 1003.85 1002.98 1002.20 1001.55 1001.10 1000.88 1000.93 1001.25 1001.82 1002.60 1003.50 1004.47 1005.42 1006.30 1007.03 1007.61 1008.00 1008.20 1008.25 1008.16 1007.96 1007.68 1007.34 1006.96 1006.56 1006.16 1005.79 1005.47 1005.25 1005.15 1005.21 1005.46 1005.90 1006.54 1007.33 1008.25 1009.23 1010.21
1009.23 1008.26 1007.32 1006.38 1005.44 1004.50 1003.58 1002.71 1001.95 1001.34 1000.94 1000.79 1000.91 1001.30 1001.94 1002.78 1003.75 1004.76 1005.75 1006.64 1007.37 1007.91 1008.25 1008.38 1008.32 1008.12 1007.79 1007.39 1006.94 1006.46 1006.00 1005.58 1005.22 1004.97 1004.83 1004.85 1005.05 1005.43 1006.00 1006.75 1007.62 1008.59 1009.58 1010.56
1009.71 1008.67 1007.65 1006.64 1005.65 1004.67 1003.73 1002.86 1002.10 1001.51 1001.13 1001.00 1001.13 1001.53 1002.18 1003.02 1003.98 1004.99 1005.97 1006.85 1007.57 1008.09 1008.40 1008.49 1008.38 1008.11 1007.72 1007.25 1006.74 1006.22 1005.74 1005.32 1005.01 1004.82 1004.78 1004.91 1005.22 1005.71 1006.38 1007.19 1008.11 1009.09 1010.07 1011.00
1010.25 1009.21 1008.18 1007.16 1006.15 1005.16 1004.22 1003.34 1002.59 1002.00 1001.61 1001.46 1001.56 1001.92 1002.51 1003.30 1004.21 1005.18 1006.12 1006.97 1007.68 1008.19 1008.50 1008.58 1008.48 1008.21 1007.81 1007.33 1006.81 1006.30 1005.84 1005.46 1005.20 1005.08 1005.12 1005.34 1005.74 1006.31 1007.03 1007.87 1008.79 1009.74 1010.68 1011.55
1010.64 1009.67 1008.70 1007.72 1006.75 1005.79 1004.87 1004.02 1003.28 1002.68 1002.27 1002.08 1002.13 1002.42 1002.93 1003.63 1004.46 1005.35 1006.23 1007.05 1007.74 1008.26 1008.59 1008.71 1008.65 1008.43 1008.08 1007.64 1007.17 1006.71 1006.30 1005.97 1005.77 1005.71 1005.82 1006.10 1006.55 1007.16 1007.89 1008.72 1009.61 1010.50 1011.37 1012.15
1010.68 1009.84 1008.98 1008.10 1007.21 1006.33 1005.47 1004.67 1003.97 1003.39 1002.98 1002.76 1002.75 1002.97 1003.39 1003.99 1004.73 1005.53 1006.35 1007.13 1007.80 1008.34 1008.71 1008.90 1008.91 1008.77 1008.50 1008.15 1007.76 1007.37 1007.02 1006.76 1006.62 1006.62 1006.77 1007.08 1007.54 1008.15 1008.86 1009.65 1010.47 1011.29 1012.06 1012.75
Thickness
5792 5782 5777 5785 5792 5789 5786 5780 5780 5793 5807 5797 5789 5787 5792 5798 5795 5790 5787 5783 5777 5773 5772 5767 5761 5758 5753 5747 5743 5740 5736 5732 5728 5724 5720 5716 5713 5712 5710 5708 5704 5701 5700 5698
5782 5778 5790 5795 5792 5785 5782 5775 5778 5787 5800 5791 5782 5783 5792 5793 5792 5791 5785 5779 5774 5769 5764 5758 5753 5748 5741 5738 5735 5732 5729 5726 5722 5719 5716 5713 5710 5706 5705 5703 5699 5697 5695 5693
5774 5784 5793 5785 5778 5775 5776 5774 5775 5775 5783 5785 5774 5768 5778 5785 5787 5785 5783 5778 5773 5765 5757 5751 5745 5739 5733 5729 5727 5726 5723 5720 5716 5713 5711 5707 5703 5699 5696 5694 5692 5691 5689 5687
5781 5793 5787 5778 5775 5775 5766 5780 5778 5774 5765 5759 5764 5744 5762 5774 5773 5770 5770 5770 5766 5762 5752 5743 5737 5732 5727 5722 5722 5720 5716 5712 5709 5706 5703 5698 5693 5689 5688 5687 5686 5685 5683 5682
5774 5783 5779 5772 5775 5777 5771 5781 5776 5770 5761 5754 5761 5746 5750 5770 5758 5755 5758 5761 5759 5757 5750 5739 5733 5727 5723 5718 5716 5712 5707 5703 5700 5698 5695 5690 5686 5684 5682 5680 5678 5677 5677 5676
5780 5791 5787 5780 5784 5782 5780 5773 5768 5765 5756 5735 5748 5738 5734 5753 5754 5753 5755 5754 5753 5750 5744 5735 5728 5722 5716 5712 5708 5704 5699 5696 5692 5689 5686 5682 5679 5676 5674 5671 5671 5669 5669 5668
5769 5782 5790 5787 5771 5774 5768 5748 5728 5722 5721 5727 5749 5736 5734 5749 5759 5755 5750 5747 5746 5743 5736 5727 5720 5715 5709 5704 5701 5696 5692 5688 5686 5682 5679 5676 5673 5669 5667 5664 5663 5661 5660 5659
5746 5753 5775 5778 5767 5756 5755 5745 5718 5701 5704 5721 5737 5730 5738 5750 5752 5751 5749 5745 5740 5733 5727 5722 5716 5710 5703 5698 5694 5690 5687 5682 5679 5676 5673 5670 5667 5664 5661 5659 5656 5654 5653 5651
5741 5745 5772 5777 5776 5766 5748 5743 5747 5725 5719 5714 5722 5733 5735 5741 5738 5737 5736 5735 5729 5725 5719 5714 5710 5704 5698 5692 5689 5685 5681 5677 5673 5671 5667 5664 5660 5657 5655 5652 5650 5648 5646 5645
5750 5737 5756 5769 5771 5769 5759 5749 5736 5719 5698 5694 5710 5717 5711 5717 5723 5725 5723 5723 5720 5716 5713 5708 5702 5698 5693 5688 5684 5679 5675 5671 5668 5664 5661 5658 5654 5651 5648 5645 5642 5641 5640 5638
5752 5732 5739 5750 5744 5742 5745 5740 5733 5726 5716 5693 5686 5700 5722 5717 5720 5719 5717 5716 5711 5705 5702 5698 5695 5692 5688 5683 5678 5673 5669 5665 5661 5657 5654 5651 5648 5645 5642 5640 5638 5635 5634 5632
5746 5731 5720 5730 5749 5755 5745 5736 5728 5707 5704 5707 5695 5694 5723 5720 5721 5718 5713 5710 5706 5701 5697 5693 5690 5686 5681 5676 5671 5667 5663 5659 5655 5652 5649 5645 5642 5639 5636 5633 5631 5629 5627 5626
5735 5718 5701 5710 5725 5737 5734 5738 5735 5725 5714 5705 5693 5696 5721 5721 5716 5713 5708 5703 5699 5694 5690 5686 5682 5678 5674 5669 5664 5660 5656 5653 5650 5646 5642 5639 5635 5632 5629 5627 5625 5623 5621 5620
5732 5713 5700 5692 5706 5722 5723 5729 5732 5722 5708 5703 5704 5703 5711 5712 5709 5706 5701 5697 5693 5688 5683 5679 5674 5670 5666 5661 5657 5654 5650 5646 5643 5640 5636 5632 5629 5625 5623 5621 5618 5617 5615 5614
5725 5709 5712 5716 5724 5725 5723 5724 5726 5719 5717 5707 5708 5708 5711 5711 5708 5704 5699 5694 5688 5683 5678 5673 5668 5662 5658 5654 5650 5648 5644 5641 5637 5633 5628 5625 5623 5620 5617 5614 5613 5611 5610 5608
5715 5702 5703 5705 5718 5720 5717 5722 5723 5721 5720 5714 5711 5708 5716 5714 5709 5701 5695 5688 5682 5677 5673 5668 5662 5657 5652 5648 5645 5641 5638 5635 5631 5626 5623 5620 5618 5615 5612 5610 5607 5605 5603 5602
5706 5696 5688 5688 5706 5705 5699 5715 5715 5714 5718 5711 5701 5705 5710 5704 5698 5694 5690 5685 5678 5674 5668 5662 5657 5652 5647 5644 5640 5636 5633 5630 5625 5621 5618 5616 5614 5611 5607 5605 5602 5599 5597 5595
5701 5693 5687 5684 5687 5673 5705 5728 5722 5714 5713 5714 5709 5708 5706 5699 5694 5691 5688 5682 5675 5669 5664 5658 5653 5648 5644 5640 5636 5633 5629 5625 5621 5617 5614 5611 5609 5607 5604 5600 5597 5594 5591 5589
5711 5694 5683 5677 5673 5682 5706 5718 5716 5706 5702 5709 5703 5702 5700 5696 5688 5681 5680 5677 5671 5665 5660 5655 5650 5645 5641 5636 5633 5629 5624 5620 5617 5613 5610 5608 5605 5602 5599 5596 5593 5590 5587 5585
5712 5701 5683 5677 5667 5667 5694 5714 5721 5709 5691 5704 5701 5695 5693 5687 5671 5668 5673 5671 5665 5660 5655 5650 5645 5641 5636 5633 5629 5624 5620 5616 5613 5611 5608 5605 5602 5599 5595 5592 5590 5587 5585 5582
5689 5688 5681 5676 5671 5680 5703 5712 5711 5684 5681 5698 5696 5691 5687 5679 5670 5668 5668 5664 5660 5655 5650 5646 5642 5637 5633 5629 5626 5621 5617 5613 5611 5609 5605 5602 5599 5596 5594 5590 5587 5585 5583 5581
5680 5677 5676 5675 5666 5672 5703 5703 5690 5685 5694 5694 5691 5687 5681 5675 5670 5665 5662 5657 5653 5649 5646 5642 5637 5633 5629 5626 5622 5618 5615 5612 5610 5607 5604 5600 5598 5595 5593 5589 5586 5584 5582 5580
5678 5678 5676 5676 5677 5692 5698 5695 5695 5695 5690 5688 5685 5682 5677 5671 5666 5661 5656 5652 5650 5646 5642 5638 5634 5630 5626 5623 5621 5616 5613 5611 5608 5605 5601 5599 5596 5594 5591 5588 5585 5584 5582 5580
5675 5683 5675 5673 5683 5688 5694 5696 5695 5693 5687 5685 5683 5679 5674 5667 5662 5656 5652 5648 5646 5642 5638 5635 5631 5627 5623 5621 5618 5615 5613 5610 5607 5603 5600 5598 5595 5593 5590 5588 5586 5584 5582 5580
5661 5666 5665 5665 5677 5681 5686 5689 5689 5689 5687 5684 5680 5677 5671 5664 5659 5654 5649 5645 5643 5639 5635 5632 5629 5625 5622 5619 5617 5615 5612 5609 5605 5602 5599 5598 5596 5594 5590 5587 5585 5583 5581 5578
5661 5660 5657 5660 5673 5672 5675 5685 5686 5681 5681 5680 5676 5672 5669 5663 5656 5651 5647 5644 5641 5637 5634 5630 5627 5624 5621 5619 5616 5614 5612 5609 5605 5602 5600 5598 5596 5594 5591 5588 5584 5581 5579 5576